TimeCST,TemperatureF,Dew PointF,Humidity,Sea Level PressureIn,VisibilityMPH,Wind Direction,Wind SpeedMPH,Gust SpeedMPH,PrecipitationIn,Events,Conditions,WindDirDegrees,DateUTC
12:15 AM,35.6,33.8,93,30.22,10.0,NW,4.6,-,N/A,,Overcast,320,2013-11-26 06:15:00
12:35 AM,35.6,33.8,93,30.22,10.0,NNW,6.9,-,N/A,,Overcast,330,2013-11-26 06:35:00
12:55 AM,35.6,33.8,93,30.21,10.0,NNW,6.9,-,N/A,,Overcast,330,2013-11-26 06:55:00
1:15 AM,35.6,33.8,93,30.21,10.0,NNW,6.9,-,N/A,,Overcast,340,2013-11-26 07:15:00
1:35 AM,35.6,33.8,93,30.20,7.0,North,10.4,-,N/A,,Overcast,350,2013-11-26 07:35:00
1:55 AM,35.6,33.8,93,30.20,7.0,North,8.1,-,N/A,,Drizzle,360,2013-11-26 07:55:00
2:15 AM,35.6,35.6,100,30.20,4.0,North,8.1,-,N/A,,Overcast,360,2013-11-26 08:15:00
2:35 AM,35.6,35.6,100,30.20,5.0,North,5.8,-,N/A,,Mostly Cloudy,360,2013-11-26 08:35:00
2:55 AM,33.8,33.8,100,30.20,5.0,North,3.5,-,N/A,,Mostly Cloudy,360,2013-11-26 08:55:00
3:15 AM,35.6,35.6,100,30.20,5.0,North,4.6,-,N/A,,Overcast,350,2013-11-26 09:15:00
3:35 AM,35.6,35.6,100,30.20,7.0,NNW,4.6,-,N/A,,Overcast,340,2013-11-26 09:35:00
3:55 AM,35.6,35.6,100,30.20,5.0,NNW,5.8,-,N/A,,Overcast,330,2013-11-26 09:55:00
4:15 AM,35.6,35.6,100,30.20,7.0,NNW,5.8,-,N/A,,Overcast,340,2013-11-26 10:15:00
4:35 AM,35.6,33.8,93,30.19,7.0,NNW,8.1,-,N/A,,Mostly Cloudy,340,2013-11-26 10:35:00
4:55 AM,33.8,33.8,100,30.19,7.0,NNW,8.1,-,N/A,,Scattered Clouds,340,2013-11-26 10:55:00
5:15 AM,33.8,33.8,100,30.20,7.0,NNW,3.5,-,N/A,,Scattered Clouds,330,2013-11-26 11:15:00
5:35 AM,33.8,33.8,100,30.20,7.0,North,4.6,-,N/A,,Scattered Clouds,350,2013-11-26 11:35:00
5:55 AM,32.0,32.0,100,30.21,5.0,North,3.5,-,N/A,,Clear,350,2013-11-26 11:55:00
6:15 AM,32.0,32.0,100,30.22,7.0,NNW,4.6,-,N/A,,Clear,330,2013-11-26 12:15:00
6:35 AM,32.0,32.0,100,30.22,7.0,NNW,5.8,-,N/A,,Clear,340,2013-11-26 12:35:00
6:55 AM,32.0,32.0,100,30.23,7.0,NNW,4.6,-,N/A,,Clear,340,2013-11-26 12:55:00
7:15 AM,32.0,32.0,100,30.23,5.0,NNW,6.9,-,N/A,,Clear,340,2013-11-26 13:15:00
7:35 AM,32.0,32.0,100,30.24,5.0,NNW,6.9,-,N/A,,Clear,340,2013-11-26 13:35:00
7:55 AM,32.0,32.0,100,30.24,5.0,NNW,6.9,-,N/A,,Clear,340,2013-11-26 13:55:00
8:15 AM,32.0,32.0,100,30.25,7.0,NNW,6.9,-,N/A,,Clear,340,2013-11-26 14:15:00
8:35 AM,33.8,32.0,93,30.25,7.0,North,6.9,-,N/A,,Clear,360,2013-11-26 14:35:00
8:55 AM,35.6,32.0,87,30.26,10.0,North,8.1,-,N/A,,Clear,350,2013-11-26 14:55:00
9:15 AM,37.4,33.8,87,30.25,10.0,North,10.4,-,N/A,,Clear,360,2013-11-26 15:15:00
9:35 AM,37.4,33.8,87,30.26,10.0,North,12.7,18.4,N/A,,Clear,350,2013-11-26 15:35:00
9:55 AM,41.0,33.8,76,30.26,10.0,North,12.7,17.3,N/A,,Clear,360,2013-11-26 15:55:00
10:15 AM,42.8,33.8,70,30.26,10.0,North,12.7,-,N/A,,Clear,360,2013-11-26 16:15:00
10:35 AM,42.8,33.8,70,30.26,10.0,North,13.8,18.4,N/A,,Clear,10,2013-11-26 16:35:00
10:55 AM,44.6,33.8,66,30.26,10.0,North,13.8,20.7,N/A,,Clear,360,2013-11-26 16:55:00
11:15 AM,46.4,33.8,62,30.27,10.0,North,15.0,20.7,N/A,,Clear,10,2013-11-26 17:15:00
11:35 AM,46.4,32.0,57,30.26,10.0,North,19.6,26.5,N/A,,Clear,10,2013-11-26 17:35:00
11:55 AM,46.4,32.0,57,30.26,10.0,North,16.1,24.2,N/A,,Clear,10,2013-11-26 17:55:00
12:15 PM,46.4,32.0,57,30.25,10.0,North,16.1,23.0,N/A,,Clear,350,2013-11-26 18:15:00
12:35 PM,48.2,32.0,54,30.25,10.0,North,15.0,23.0,N/A,,Clear,10,2013-11-26 18:35:00
12:55 PM,48.2,32.0,54,30.24,10.0,North,17.3,24.2,N/A,,Clear,10,2013-11-26 18:55:00
1:15 PM,50.0,32.0,50,30.24,10.0,North,13.8,25.3,N/A,,Clear,360,2013-11-26 19:15:00
1:35 PM,50.0,32.0,50,30.24,10.0,NNW,18.4,24.2,N/A,,Clear,340,2013-11-26 19:35:00
1:55 PM,50.0,32.0,50,30.24,10.0,North,21.9,31.1,N/A,,Clear,360,2013-11-26 19:55:00
2:15 PM,50.0,30.2,47,30.23,10.0,North,20.7,28.8,N/A,,Clear,360,2013-11-26 20:15:00
2:35 PM,50.0,30.2,47,30.23,10.0,North,20.7,28.8,N/A,,Clear,360,2013-11-26 20:35:00
2:55 PM,50.0,30.2,47,30.24,10.0,North,16.1,21.9,N/A,,Clear,360,2013-11-26 20:55:00
3:15 PM,50.0,32.0,50,30.25,10.0,North,17.3,27.6,N/A,,Clear,360,2013-11-26 21:15:00
3:35 PM,48.2,32.0,54,30.25,10.0,North,21.9,26.5,N/A,,Clear,350,2013-11-26 21:35:00
3:55 PM,46.4,32.0,57,30.26,10.0,North,18.4,26.5,N/A,,Clear,350,2013-11-26 21:55:00
4:15 PM,46.4,30.2,53,30.27,10.0,North,19.6,24.2,N/A,,Clear,350,2013-11-26 22:15:00
4:35 PM,44.6,30.2,57,30.27,10.0,North,21.9,26.5,N/A,,Clear,350,2013-11-26 22:35:00
4:55 PM,44.6,30.2,57,30.29,10.0,North,17.3,27.6,N/A,,Clear,360,2013-11-26 22:55:00
5:15 PM,42.8,30.2,61,30.30,10.0,North,17.3,29.9,N/A,,Clear,10,2013-11-26 23:15:00
5:35 PM,41.0,28.4,61,30.31,10.0,North,17.3,25.3,N/A,,Clear,10,2013-11-26 23:35:00
5:55 PM,39.2,28.4,65,30.32,10.0,North,15.0,18.4,N/A,,Clear,10,2013-11-26 23:55:00
6:15 PM,37.4,28.4,70,30.33,10.0,North,12.7,-,N/A,,Clear,360,2013-11-27 00:15:00
6:35 PM,37.4,28.4,70,30.34,10.0,North,10.4,16.1,N/A,,Clear,10,2013-11-27 00:35:00
6:55 PM,35.6,28.4,75,30.35,10.0,North,9.2,-,N/A,,Clear,10,2013-11-27 00:55:00
7:15 PM,35.6,28.4,75,30.36,10.0,North,9.2,-,N/A,,Clear,10,2013-11-27 01:15:00
7:35 PM,35.6,28.4,75,30.37,10.0,North,9.2,-,N/A,,Clear,10,2013-11-27 01:35:00
7:55 PM,33.8,28.4,81,30.37,10.0,North,11.5,-,N/A,,Clear,360,2013-11-27 01:55:00
8:15 PM,33.8,28.4,81,30.38,10.0,North,9.2,-,N/A,,Clear,360,2013-11-27 02:15:00
8:35 PM,33.8,28.4,81,30.38,10.0,North,11.5,-,N/A,,Clear,350,2013-11-27 02:35:00
8:55 PM,33.8,26.6,75,30.39,10.0,North,10.4,-,N/A,,Clear,350,2013-11-27 02:55:00
9:15 PM,33.8,26.6,75,30.39,10.0,North,8.1,-,N/A,,Clear,350,2013-11-27 03:15:00
9:35 PM,32.0,26.6,80,30.40,10.0,North,9.2,-,N/A,,Clear,350,2013-11-27 03:35:00
9:55 PM,32.0,26.6,80,30.40,10.0,North,12.7,-,N/A,,Clear,350,2013-11-27 03:55:00
10:15 PM,32.0,24.8,75,30.40,10.0,North,11.5,-,N/A,,Clear,360,2013-11-27 04:15:00
10:35 PM,32.0,24.8,75,30.40,10.0,North,9.2,-,N/A,,Clear,350,2013-11-27 04:35:00
10:55 PM,32.0,24.8,75,30.41,10.0,North,8.1,-,N/A,,Clear,350,2013-11-27 04:55:00
11:15 PM,32.0,23.0,69,30.41,10.0,North,6.9,-,N/A,,Clear,350,2013-11-27 05:15:00
11:35 PM,30.2,23.0,75,30.42,10.0,North,9.2,-,N/A,,Clear,350,2013-11-27 05:35:00
11:55 PM,30.2,23.0,75,30.42,10.0,North,6.9,-,N/A,,Clear,350,2013-11-27 05:55:00